This is the latest recevied weather packets stored in our database for station/object HB9GPU-10. If no packets are shown the sender has not sent any weather packets the latest 10 day(s).
| Time | Temp. | Humidity | Pressure | Rain* | Wind** | Luminosity | Snow |
|---|---|---|---|---|---|---|---|
| 1788338918 | 22.22° C | 38% | 1026.8 hPa | - | - | - | - |
| 1788338018 | 22.22° C | 38% | 1026.7 hPa | - | - | - | - |
| 1788337118 | 22.78° C | 37% | 1026.8 hPa | - | - | - | - |
| 1788336218 | 22.22° C | 38% | 1026.6 hPa | - | - | - | - |
| 1788335318 | 22.78° C | 36% | 1026.6 hPa | - | - | - | - |
| 1788334417 | 22.78° C | 37% | 1026.6 hPa | - | - | - | - |
| 1788333517 | 22.22° C | 37% | 1026.5 hPa | - | - | - | - |
| 1788332617 | 22.22° C | 37% | 1026.7 hPa | - | - | - | - |
| 1788331717 | 22.22° C | 37% | 1026.7 hPa | - | - | - | - |
| 1788330817 | 22.22° C | 37% | 1026.7 hPa | - | - | - | - |
| 1788329916 | 22.22° C | 37% | 1026.7 hPa | - | - | - | - |
| 1788329016 | 21.67° C | 37% | 1026.7 hPa | - | - | - | - |
| 1788328116 | 21.67° C | 37% | 1026.5 hPa | - | - | - | - |
| 1788327216 | 21.67° C | 37% | 1026.4 hPa | - | - | - | - |
| 1788326316 | 21.67° C | 37% | 1026.3 hPa | - | - | - | - |
| 1788325416 | 21.67° C | 37% | 1026.4 hPa | - | - | - | - |
| 1788324516 | 21.11° C | 38% | 1026.3 hPa | - | - | - | - |
| 1788323615 | 22.22° C | 36% | 1026.2 hPa | - | - | - | - |
| 1788322715 | 22.22° C | 36% | 1026.2 hPa | - | - | - | - |
| 1788321815 | 21.67° C | 37% | 1026.1 hPa | - | - | - | - |
| 1788320915 | 22.22° C | 36% | 1026 hPa | - | - | - | - |
| 1788320015 | 22.22° C | 36% | 1026.1 hPa | - | - | - | - |
| 1788319115 | 22.22° C | 36% | 1026.1 hPa | - | - | - | - |
| 1788318214 | 22.22° C | 37% | 1026.1 hPa | - | - | - | - |
| 1788317314 | 22.22° C | 36% | 1026.1 hPa | - | - | - | - |
* Rain since midnight (hover to see other rain measurements)
** Current wind speed in m/s (hover to see current wind gust speed)